Location: Newark
(45.8667°N, 9.7333°E)
Time: 10:46:08
(UTC+00:00)

Vanguard 2 Rocket - Pass Details

Date: 27 January 2020
Orbit: 554 x 3327 km, 32.9° (Epoch: 19 February)

Event Time Altitude Azimuth Distance (km) Brightness Sun altitude
Rises 03:27:03 0° 210° (SSW) 2,713 - -35.1°
Reaches altitude 10° 03:31:01 10° 168° (SSE) 1,948 - -34.4°
Maximum altitude 03:31:57 11° 156° (SSE) 1,963 - -34.3°
Drops below altitude 10° 03:32:55 10° 143° (SE) 2,067 - -34.1°
Exits shadow 03:32:55 10° 143° (SE) 2,067 9.0 -34.1°
Sets 03:37:53 0° 105° (ESE) 3,440 10.8 -33.3°
